Regional Weather Roundup
Issued by NWS Cleveland, OH

Home | Current Version | Previous Version | Graphics & Text | Print | Product List | Glossary On
Versions: 1 2 3 4 5 6 7 8 9 10 11 12 13 14 15 16 17 18 19 20 21 22 23 24 25 26 27 28 29 30 31 32 33 34 35 36 37 38 39 40 41 42 43 44 45 46 47 48 49 50
000
ASUS41 KCLE 282002
RWRCLE
OHIO REGIONAL WEATHER ROUNDUP
NATIONAL WEATHER SERVICE CLEVELAND, OH
400 PM EDT TUE JUL 28 2015

NOTE: "FAIR" INDICATES FEW OR NO CLOUDS BELOW 12,000 FEET WITH NO
SIGNIFICANT WEATHER AND/OR OBSTRUCTIONS TO VISIBILITY.

OHZ001>008-015>018-024>027-034-035-043-044-282100-
   NORTHWEST OHIO

CITY           SKY/WX    TMP DP  RH WIND       PRES   REMARKS
DEFIANCE       SUNNY     90  59  35 CALM      30.00F
FINDLAY        SUNNY     91  58  32 CALM      29.99F HX  90
TOLEDO EXPRESS MOSUNNY   90  65  43 NE9       30.00F HX  92
TOLEDO EXEC    SUNNY     89  62  40 NE8       30.01F
LIMA           PTSUNNY   88  65  46 S3        30.00S HX  90
$$

OHZ009>014-019>023-028>033-038-089-282100-
   NORTHEAST OHIO

CITY           SKY/WX    TMP DP  RH WIND       PRES   REMARKS
CLE-HOPKINS    MOSUNNY   87  67  51 N14       30.02S HX  90
CLE-LAKEFRONT  SUNNY     82  72  71 NE13      30.00S
CUY CO. ARPT   PTSUNNY   90  68  48 NE15      30.02S HX  93
LORAIN-ELYRIA  SUNNY     88  62  41 NE10      30.02S
ASHTABULA      SUNNY     87  63  44 N8        30.03S
AKRON-CANTON   MOSUNNY   89  62  40 NE9       30.02S
WOOSTER        SUNNY     88  64  44 E6        30.03S
MANSFIELD      PTSUNNY   89  61  38 NE5       30.03S
YOUNGSTOWN     MOSUNNY   88  59  37 E7        30.02F
$$

OHZ042-051>053-060>062-070>072-077>081-282100-
  SOUTHWEST OHIO

CITY           SKY/WX    TMP DP  RH WIND       PRES   REMARKS
CINC-COVINGTON PTSUNNY   90  70  51 N7        29.98S HX  95
CINC-LUNKEN    PTSUNNY   87  74  64 CALM      29.96S HX  95
HAMILTON       SUNNY     90  72  55 NW5       29.97F HX  97
DAYTON         MOSUNNY   88  70  55 VRB3      30.00F HX  93
WRIGHT-PAT AFB MOSUNNY   87  71  57 E5        29.98F HX  92
DAYTON GENERAL PTSUNNY   88  71  57 E3        29.98F HX  94
WILMINGTON     PTSUNNY   84  70  62 CALM      29.98F
$$

OHZ036-037-039>041-045>050-054>059-063>069-073>076-082>088-282100-
  CENTRAL AND SOUTHEAST OHIO

CITY           SKY/WX    TMP DP  RH WIND       PRES   REMARKS
COLUMBUS       PTSUNNY   88  67  49 N3        29.97F HX  91
OSU AIRPORT    SUNNY     88  67  49 E5        29.98F HX  91
BOLTON FIELD   SUNNY     88  70  55 CALM      29.99F HX  92
RICKENBACK AFB NOT AVBL
NEWARK         PTSUNNY   89  69  51 CALM      29.98F HX  93
MARION         PTSUNNY   89  65  44 NE5       30.01S HX  91
LANCASTER      PTSUNNY   86  72  62 E3        29.99S HX  92
ZANESVILLE     MOSUNNY   90  67  46 VRB5      29.99F HX  93
NEW PHILLY     MOSUNNY   88  70  55 N3        30.01S HX  93
$$


USA.gov is the U.S. government's official web portal to all federal, state and local government web resources and services.